Time,TemperatureF,DewpointF,PressureIn,WindDirection,WindDirectionDegrees,WindSpeedMPH,WindSpeedGustMPH,Humidity,HourlyPrecipIn,Conditions,Clouds,dailyrainin,SoftwareType,DateUTC
2013-02-26 00:02:00,35.6,14.2,29.98,WNW,290,5.0,7.0,41,0.00,,,0.00,meteohub,2013-02-26 07:02:00,
2013-02-26 00:07:00,35.2,13.8,29.98,WNW,284,6.0,7.0,41,0.00,,,0.00,meteohub,2013-02-26 07:07:00,
2013-02-26 00:12:00,35.1,14.4,29.98,WNW,286,4.0,7.0,42,0.00,,,0.00,meteohub,2013-02-26 07:12:00,
2013-02-26 00:17:00,35.1,14.4,29.98,WNW,297,5.0,7.0,42,0.00,,,0.00,meteohub,2013-02-26 07:17:00,
2013-02-26 00:22:00,35.1,14.4,29.98,WNW,282,5.0,7.0,42,0.00,,,0.00,meteohub,2013-02-26 07:22:00,
2013-02-26 00:27:00,35.1,14.4,29.98,WNW,284,3.0,9.0,42,0.00,,,0.00,meteohub,2013-02-26 07:27:00,
2013-02-26 00:32:00,35.2,13.8,29.98,West,271,1.0,9.0,41,0.00,,,0.00,meteohub,2013-02-26 07:32:00,
2013-02-26 00:37:00,35.2,13.8,29.98,West,279,5.0,9.0,41,0.00,,,0.00,meteohub,2013-02-26 07:37:00,
2013-02-26 00:42:00,35.1,14.4,29.99,WNW,285,5.0,8.0,42,0.00,,,0.00,meteohub,2013-02-26 07:42:00,
2013-02-26 00:47:00,34.9,14.2,29.99,West,269,4.0,8.0,42,0.00,,,0.00,meteohub,2013-02-26 07:47:00,
2013-02-26 00:52:00,34.7,14.0,29.99,WNW,288,5.0,8.0,42,0.00,,,0.00,meteohub,2013-02-26 07:52:00,
2013-02-26 00:57:00,34.5,13.8,29.99,West,279,6.0,8.0,42,0.00,,,0.00,meteohub,2013-02-26 07:57:00,
2013-02-26 01:02:00,34.5,14.4,29.99,West,281,3.0,8.0,43,0.00,,,0.00,meteohub,2013-02-26 08:02:00,
2013-02-26 01:07:00,34.5,14.4,29.99,West,278,3.0,8.0,43,0.00,,,0.00,meteohub,2013-02-26 08:07:00,
2013-02-26 01:12:00,34.7,14.5,29.99,WNW,284,4.0,7.0,43,0.00,,,0.00,meteohub,2013-02-26 08:12:00,
2013-02-26 01:17:00,34.5,14.4,29.99,WNW,287,5.0,7.0,43,0.00,,,0.00,meteohub,2013-02-26 08:17:00,
2013-02-26 01:22:00,34.3,14.2,29.99,NW,308,4.0,7.0,43,0.00,,,0.00,meteohub,2013-02-26 08:22:00,
2013-02-26 01:27:00,34.2,14.0,29.99,WNW,288,5.0,7.0,43,0.00,,,0.00,meteohub,2013-02-26 08:27:00,
2013-02-26 01:32:00,34.2,14.0,29.99,West,274,4.0,7.0,43,0.00,,,0.00,meteohub,2013-02-26 08:32:00,
2013-02-26 01:37:00,34.3,14.2,29.99,WNW,284,1.0,7.0,43,0.00,,,0.00,meteohub,2013-02-26 08:37:00,
2013-02-26 01:42:00,34.3,14.2,29.99,WNW,284,2.0,7.0,43,0.00,,,0.00,meteohub,2013-02-26 08:42:00,
2013-02-26 01:47:00,34.5,14.4,29.99,WNW,284,4.0,7.0,43,0.00,,,0.00,meteohub,2013-02-26 08:47:00,
2013-02-26 01:52:00,34.3,14.2,29.99,North,0,4.0,6.0,43,0.00,,,0.00,meteohub,2013-02-26 08:52:00,
2013-02-26 01:57:00,34.2,14.0,29.98,WNW,287,2.0,6.0,43,0.00,,,0.00,meteohub,2013-02-26 08:57:00,
2013-02-26 02:02:00,33.6,14.0,29.98,West,274,1.0,6.0,44,0.00,,,0.00,meteohub,2013-02-26 09:02:00,
2013-02-26 02:07:00,33.4,13.8,29.98,WNW,292,3.0,6.0,44,0.00,,,0.00,meteohub,2013-02-26 09:07:00,
2013-02-26 02:12:00,33.3,14.2,29.97,WNW,292,2.0,6.0,45,0.00,,,0.00,meteohub,2013-02-26 09:12:00,
2013-02-26 02:17:00,33.1,14.5,29.97,WNW,292,1.0,6.0,46,0.00,,,0.00,meteohub,2013-02-26 09:17:00,
2013-02-26 02:22:00,32.7,14.2,29.97,WNW,284,1.0,6.0,46,0.00,,,0.00,meteohub,2013-02-26 09:22:00,
2013-02-26 02:27:00,32.9,14.4,29.97,WNW,284,0.0,6.0,46,0.00,,,0.00,meteohub,2013-02-26 09:27:00,
2013-02-26 02:32:00,32.5,14.0,29.97,WNW,284,1.0,5.0,46,0.00,,,0.00,meteohub,2013-02-26 09:32:00,
2013-02-26 02:37:00,32.5,14.0,29.97,WNW,284,2.0,5.0,46,0.00,,,0.00,meteohub,2013-02-26 09:37:00,
2013-02-26 02:42:00,32.9,14.4,29.96,WNW,284,2.0,4.0,46,0.00,,,0.00,meteohub,2013-02-26 09:42:00,
2013-02-26 02:47:00,33.1,14.5,29.96,WNW,284,2.0,4.0,46,0.00,,,0.00,meteohub,2013-02-26 09:47:00,
2013-02-26 02:52:00,33.1,14.5,29.96,WNW,283,4.0,4.0,46,0.00,,,0.00,meteohub,2013-02-26 09:52:00,
2013-02-26 02:57:00,33.1,14.0,29.96,WNW,283,1.0,4.0,45,0.00,,,0.00,meteohub,2013-02-26 09:57:00,
2013-02-26 03:02:00,32.9,14.4,29.96,WNW,294,5.0,5.0,46,0.00,,,0.00,meteohub,2013-02-26 10:02:00,
2013-02-26 03:07:00,32.4,14.4,29.96,West,281,5.0,5.0,47,0.00,,,0.00,meteohub,2013-02-26 10:07:00,
2013-02-26 03:12:00,32.2,14.2,29.96,WNW,288,2.0,7.0,47,0.00,,,0.00,meteohub,2013-02-26 10:12:00,
2013-02-26 03:17:00,32.5,14.5,29.96,WNW,288,0.0,7.0,47,0.00,,,0.00,meteohub,2013-02-26 10:17:00,
2013-02-26 03:22:00,32.5,14.5,29.96,WNW,288,2.0,7.0,47,0.00,,,0.00,meteohub,2013-02-26 10:22:00,
2013-02-26 03:27:00,32.5,14.5,29.96,WNW,292,2.0,7.0,47,0.00,,,0.00,meteohub,2013-02-26 10:27:00,
2013-02-26 03:32:00,32.4,14.4,29.95,WNW,289,2.0,5.0,47,0.00,,,0.00,meteohub,2013-02-26 10:32:00,
2013-02-26 03:37:00,32.5,14.5,29.95,WNW,289,4.0,5.0,47,0.00,,,0.00,meteohub,2013-02-26 10:37:00,
2013-02-26 03:42:00,32.7,14.2,29.95,WNW,288,1.0,5.0,46,0.00,,,0.00,meteohub,2013-02-26 10:42:00,
2013-02-26 03:47:00,32.4,14.4,29.95,WNW,289,4.0,5.0,47,0.00,,,0.00,meteohub,2013-02-26 10:47:00,
2013-02-26 03:52:00,32.5,14.5,29.95,WNW,294,3.0,5.0,47,0.00,,,0.00,meteohub,2013-02-26 10:52:00,
2013-02-26 03:57:00,32.4,14.4,29.95,NW,314,3.0,5.0,47,0.00,,,0.00,meteohub,2013-02-26 10:57:00,
2013-02-26 04:02:00,31.6,13.6,29.95,WNW,296,4.0,5.0,47,0.00,,,0.00,meteohub,2013-02-26 11:02:00,
2013-02-26 04:07:00,31.5,14.0,29.95,WNW,282,3.0,5.0,48,0.00,,,0.00,meteohub,2013-02-26 11:07:00,
2013-02-26 04:12:00,31.5,14.0,29.95,West,279,4.0,6.0,48,0.00,,,0.00,meteohub,2013-02-26 11:12:00,
2013-02-26 04:18:00,31.6,14.2,29.95,West,273,1.0,6.0,48,0.00,,,0.00,meteohub,2013-02-26 11:18:00,
2013-02-26 04:23:00,32.0,14.0,29.94,West,273,3.0,6.0,47,0.00,,,0.00,meteohub,2013-02-26 11:23:00,
2013-02-26 04:28:00,31.8,13.8,29.94,West,274,3.0,6.0,47,0.00,,,0.00,meteohub,2013-02-26 11:28:00,
2013-02-26 04:34:00,32.0,14.0,29.94,West,274,1.0,6.0,47,0.00,,,0.00,meteohub,2013-02-26 11:34:00,
2013-02-26 04:39:00,32.5,14.0,29.94,West,277,2.0,5.0,46,0.00,,,0.00,meteohub,2013-02-26 11:39:00,
2013-02-26 04:44:00,32.4,14.4,29.94,West,280,3.0,5.0,47,0.00,,,0.00,meteohub,2013-02-26 11:44:00,
2013-02-26 04:50:00,32.2,14.2,29.94,West,280,0.0,5.0,47,0.00,,,0.00,meteohub,2013-02-26 11:50:00,
2013-02-26 04:55:00,31.5,14.0,29.94,West,280,3.0,5.0,48,0.00,,,0.00,meteohub,2013-02-26 11:55:00,
2013-02-26 05:00:00,30.9,14.0,29.94,West,279,0.0,5.0,49,0.00,,,0.00,meteohub,2013-02-26 12:00:00,
2013-02-26 05:05:00,30.9,14.0,29.94,West,278,3.0,5.0,49,0.00,,,0.00,meteohub,2013-02-26 12:05:00,
2013-02-26 05:11:00,30.6,14.2,29.93,West,278,2.0,5.0,50,0.00,,,0.00,meteohub,2013-02-26 12:11:00,
2013-02-26 05:16:00,30.6,14.2,29.94,SW,215,4.0,4.0,50,0.00,,,0.00,meteohub,2013-02-26 12:16:00,
2013-02-26 05:21:00,30.4,14.4,29.94,SSW,209,3.0,4.0,51,0.00,,,0.00,meteohub,2013-02-26 12:21:00,
2013-02-26 05:26:00,30.6,14.5,29.94,SSW,209,4.0,4.0,51,0.00,,,0.00,meteohub,2013-02-26 12:26:00,
2013-02-26 05:32:00,30.7,14.4,29.94,South,190,4.0,6.0,50,0.00,,,0.00,meteohub,2013-02-26 12:32:00,
2013-02-26 05:37:00,30.7,14.4,29.94,ENE,63,5.0,6.0,50,0.00,,,0.00,meteohub,2013-02-26 12:37:00,
2013-02-26 05:42:00,30.2,14.2,29.94,NNE,30,0.0,6.0,51,0.00,,,0.00,meteohub,2013-02-26 12:42:00,
2013-02-26 05:47:00,29.7,14.2,29.94,NNE,30,0.0,7.0,52,0.00,,,0.00,meteohub,2013-02-26 12:47:00,
2013-02-26 05:52:00,29.3,14.4,29.94,NNE,30,0.0,7.0,53,0.00,,,0.00,meteohub,2013-02-26 12:52:00,
2013-02-26 05:57:00,28.8,13.8,29.94,NNE,30,0.0,1.0,53,0.00,,,0.00,meteohub,2013-02-26 12:57:00,
2013-02-26 06:02:00,28.8,14.2,29.94,NNE,30,0.0,1.0,54,0.00,,,0.00,meteohub,2013-02-26 13:02:00,
2013-02-26 06:07:00,28.8,14.2,29.94,NNE,30,3.0,3.0,54,0.00,,,0.00,meteohub,2013-02-26 13:07:00,
2013-02-26 06:12:00,28.2,14.2,29.94,NNE,30,0.0,4.0,55,0.00,,,0.00,meteohub,2013-02-26 13:12:00,
2013-02-26 06:17:00,28.0,14.4,29.94,NNW,347,0.0,4.0,56,0.00,,,0.00,meteohub,2013-02-26 13:17:00,
2013-02-26 06:22:00,28.0,14.4,29.94,NNW,347,1.0,4.0,56,0.00,,,0.00,meteohub,2013-02-26 13:22:00,
2013-02-26 06:27:00,28.0,14.0,29.94,NNE,13,0.0,4.0,55,0.00,,,0.00,meteohub,2013-02-26 13:27:00,
2013-02-26 06:32:00,28.0,14.4,29.95,NW,323,0.0,4.0,56,0.00,,,0.00,meteohub,2013-02-26 13:32:00,
2013-02-26 06:37:00,28.0,14.4,29.95,SSW,196,4.0,4.0,56,0.00,,,0.00,meteohub,2013-02-26 13:37:00,
2013-02-26 06:42:00,27.9,14.2,29.95,South,186,3.0,4.0,56,0.00,,,0.00,meteohub,2013-02-26 13:42:00,
2013-02-26 06:48:00,27.9,14.2,29.94,SSW,196,5.0,10.0,56,0.00,,,0.00,meteohub,2013-02-26 13:48:00,
2013-02-26 06:53:00,28.0,14.0,29.94,SSE,147,5.0,10.0,55,0.00,,,0.00,meteohub,2013-02-26 13:53:00,
2013-02-26 06:58:00,28.6,14.0,29.94,SSE,157,6.0,10.0,54,0.00,,,0.00,meteohub,2013-02-26 13:58:00,
2013-02-26 07:04:00,28.9,14.0,29.94,SSE,166,8.0,10.0,53,0.00,,,0.00,meteohub,2013-02-26 14:04:00,
2013-02-26 07:09:00,29.1,14.2,29.95,SSE,168,4.0,9.0,53,0.00,,,0.00,meteohub,2013-02-26 14:09:00,
2013-02-26 07:14:00,29.3,14.4,29.95,South,173,1.0,9.0,53,0.00,,,0.00,meteohub,2013-02-26 14:14:00,
2013-02-26 07:20:00,29.5,14.0,29.95,South,173,2.0,8.0,52,0.00,,,0.00,meteohub,2013-02-26 14:20:00,
2013-02-26 07:25:00,29.7,14.2,29.95,South,173,2.0,8.0,52,0.00,,,0.00,meteohub,2013-02-26 14:25:00,
2013-02-26 07:30:00,29.8,14.7,29.95,South,173,0.0,6.0,53,0.00,,,0.00,meteohub,2013-02-26 14:30:00,
2013-02-26 07:36:00,30.0,14.5,29.96,South,173,0.0,6.0,52,0.00,,,0.00,meteohub,2013-02-26 14:36:00,
2013-02-26 07:41:00,30.4,14.9,29.96,South,173,0.0,5.0,52,0.00,,,0.00,meteohub,2013-02-26 14:41:00,
2013-02-26 07:46:00,30.7,15.3,29.96,South,171,0.0,5.0,52,0.00,,,0.00,meteohub,2013-02-26 14:46:00,
2013-02-26 07:51:00,31.3,15.3,29.96,South,171,0.0,5.0,51,0.00,,,0.00,meteohub,2013-02-26 14:51:00,
2013-02-26 07:57:00,31.6,15.1,29.96,South,169,0.0,5.0,50,0.00,,,0.00,meteohub,2013-02-26 14:57:00,
2013-02-26 08:02:00,32.2,15.6,29.97,SSE,150,2.0,4.0,50,0.00,,,0.00,meteohub,2013-02-26 15:02:00,
2013-02-26 08:07:00,32.5,15.1,29.97,SSE,149,1.0,4.0,48,0.00,,,0.00,meteohub,2013-02-26 15:07:00,
2013-02-26 08:12:00,33.1,15.4,29.97,SSE,149,0.0,5.0,48,0.00,,,0.00,meteohub,2013-02-26 15:12:00,
2013-02-26 08:17:00,33.4,15.4,29.97,SE,138,2.0,5.0,47,0.00,,,0.00,meteohub,2013-02-26 15:17:00,
2013-02-26 08:22:00,34.2,15.6,29.98,SE,140,5.0,7.0,46,0.00,,,0.00,meteohub,2013-02-26 15:22:00,
2013-02-26 08:27:00,34.7,15.4,29.98,SE,140,5.0,7.0,45,0.00,,,0.00,meteohub,2013-02-26 15:27:00,
2013-02-26 08:32:00,35.2,15.4,29.98,SE,144,4.0,8.0,44,0.00,,,0.00,meteohub,2013-02-26 15:32:00,
2013-02-26 08:37:00,35.8,16.0,29.98,ESE,107,1.0,8.0,44,0.00,,,0.00,meteohub,2013-02-26 15:37:00,
2013-02-26 08:43:00,36.1,16.9,29.98,ESE,107,4.0,9.0,45,0.00,,,0.00,meteohub,2013-02-26 15:43:00,
2013-02-26 08:48:00,36.7,16.3,29.98,SE,140,6.0,9.0,43,0.00,,,0.00,meteohub,2013-02-26 15:48:00,
2013-02-26 08:54:00,37.4,16.3,29.98,ESE,119,5.0,8.0,42,0.00,,,0.00,meteohub,2013-02-26 15:54:00,
2013-02-26 08:59:00,38.5,18.0,29.99,ESE,117,1.0,8.0,43,0.00,,,0.00,meteohub,2013-02-26 15:59:00,
2013-02-26 09:04:00,39.2,16.9,29.99,ENE,65,2.0,8.0,40,0.00,,,0.00,meteohub,2013-02-26 16:04:00,
2013-02-26 09:09:00,39.2,16.9,29.99,East,88,3.0,7.0,40,0.00,,,0.00,meteohub,2013-02-26 16:09:00,
2013-02-26 09:15:00,39.9,16.9,29.99,SE,131,6.0,7.0,39,0.00,,,0.00,meteohub,2013-02-26 16:15:00,
2013-02-26 09:20:00,40.5,16.9,29.99,ESE,119,5.0,8.0,38,0.00,,,0.00,meteohub,2013-02-26 16:20:00,
2013-02-26 09:25:00,40.6,17.1,29.99,ESE,115,1.0,8.0,38,0.00,,,0.00,meteohub,2013-02-26 16:25:00,
2013-02-26 09:31:00,41.2,16.9,29.99,ESE,109,8.0,8.0,37,0.00,,,0.00,meteohub,2013-02-26 16:31:00,
2013-02-26 09:36:00,41.5,16.5,29.99,ESE,120,7.0,8.0,36,0.00,,,0.00,meteohub,2013-02-26 16:36:00,
2013-02-26 09:41:00,42.1,17.1,29.99,SSE,150,7.0,11.0,36,0.00,,,0.00,meteohub,2013-02-26 16:41:00,
2013-02-26 09:47:00,42.6,16.2,29.99,SE,140,2.0,11.0,34,0.00,,,0.00,meteohub,2013-02-26 16:47:00,
2013-02-26 09:52:00,43.2,16.7,29.98,ESE,114,5.0,10.0,34,0.00,,,0.00,meteohub,2013-02-26 16:52:00,
2013-02-26 09:57:00,43.7,16.5,29.99,East,90,4.0,10.0,33,0.00,,,0.00,meteohub,2013-02-26 16:57:00,
2013-02-26 10:02:00,44.1,16.7,29.98,East,94,2.0,11.0,33,0.00,,,0.00,meteohub,2013-02-26 17:02:00,
2013-02-26 10:07:00,44.6,16.5,29.99,East,96,6.0,11.0,32,0.00,,,0.00,meteohub,2013-02-26 17:07:00,
2013-02-26 10:12:00,45.0,16.2,29.99,East,83,3.0,8.0,31,0.00,,,0.00,meteohub,2013-02-26 17:12:00,
2013-02-26 10:17:00,45.1,15.6,29.99,East,80,0.0,8.0,30,0.00,,,0.00,meteohub,2013-02-26 17:17:00,
2013-02-26 10:22:00,45.3,15.6,29.98,ENE,63,5.0,7.0,30,0.00,,,0.00,meteohub,2013-02-26 17:22:00,
2013-02-26 10:27:00,45.9,16.9,29.98,NE,56,2.0,7.0,31,0.00,,,0.00,meteohub,2013-02-26 17:27:00,
2013-02-26 10:32:00,46.4,16.7,29.98,East,97,4.0,7.0,30,0.00,,,0.00,meteohub,2013-02-26 17:32:00,
2013-02-26 10:37:00,46.9,16.3,29.98,NE,48,5.0,7.0,29,0.00,,,0.00,meteohub,2013-02-26 17:37:00,
2013-02-26 10:43:00,48.0,14.7,29.99,NNE,32,4.0,7.0,26,0.00,,,0.00,meteohub,2013-02-26 17:43:00,
2013-02-26 10:48:00,49.3,13.1,29.98,NNE,26,2.0,7.0,23,0.00,,,0.00,meteohub,2013-02-26 17:48:00,
2013-02-26 10:53:00,49.8,11.5,29.98,NNW,329,6.0,14.0,21,0.00,,,0.00,meteohub,2013-02-26 17:53:00,
2013-02-26 10:59:00,50.4,14.0,29.98,NNE,19,6.0,14.0,23,0.00,,,0.00,meteohub,2013-02-26 17:59:00,
2013-02-26 11:04:00,50.9,14.4,29.98,NNE,19,9.0,13.0,23,0.00,,,0.00,meteohub,2013-02-26 18:04:00,
2013-02-26 11:09:00,51.6,14.0,29.98,NE,40,6.0,16.0,22,0.00,,,0.00,meteohub,2013-02-26 18:09:00,
2013-02-26 11:15:00,52.2,13.5,29.98,NE,35,8.0,16.0,21,0.00,,,0.00,meteohub,2013-02-26 18:15:00,
2013-02-26 11:20:00,52.2,11.1,29.98,NNW,344,10.0,20.0,19,0.00,,,0.00,meteohub,2013-02-26 18:20:00,
2013-02-26 11:25:00,52.9,7.9,29.98,North,11,13.0,20.0,16,0.00,,,0.00,meteohub,2013-02-26 18:25:00,
2013-02-26 11:30:00,53.1,6.6,29.98,NNW,339,7.0,22.0,15,0.00,,,0.00,meteohub,2013-02-26 18:30:00,
2013-02-26 11:36:00,52.9,5.0,29.98,NNW,334,10.0,22.0,14,0.00,,,0.00,meteohub,2013-02-26 18:36:00,
2013-02-26 11:41:00,52.0,5.7,29.98,NNW,340,13.0,23.0,15,0.00,,,0.00,meteohub,2013-02-26 18:41:00,
2013-02-26 11:46:00,52.3,6.1,29.98,NNW,327,20.0,23.0,15,0.00,,,0.00,meteohub,2013-02-26 18:46:00,
2013-02-26 11:52:00,52.2,5.9,29.99,NNW,337,9.0,27.0,15,0.00,,,0.00,meteohub,2013-02-26 18:52:00,
2013-02-26 11:57:00,52.0,5.7,29.98,North,5,8.0,27.0,15,0.00,,,0.00,meteohub,2013-02-26 18:57:00,
2013-02-26 12:02:00,52.2,5.9,29.99,NW,320,14.0,27.0,15,0.00,,,0.00,meteohub,2013-02-26 19:02:00,
2013-02-26 12:07:00,52.0,5.7,29.99,NNW,331,12.0,27.0,15,0.00,,,0.00,meteohub,2013-02-26 19:07:00,
2013-02-26 12:12:00,52.5,6.3,29.99,North,355,10.0,27.0,15,0.00,,,0.00,meteohub,2013-02-26 19:12:00,
2013-02-26 12:18:00,52.2,5.9,29.99,NW,319,10.0,27.0,15,0.00,,,0.00,meteohub,2013-02-26 19:18:00,
2013-02-26 12:23:00,52.7,4.8,29.98,NNW,342,16.0,27.0,14,0.00,,,0.00,meteohub,2013-02-26 19:23:00,
2013-02-26 12:28:00,52.5,3.0,29.99,NW,317,10.0,24.0,13,0.00,,,0.00,meteohub,2013-02-26 19:28:00,
2013-02-26 12:34:00,52.3,4.5,29.99,NNW,334,13.0,24.0,14,0.00,,,0.00,meteohub,2013-02-26 19:34:00,
2013-02-26 12:39:00,52.7,4.8,29.99,NNW,336,17.0,24.0,14,0.00,,,0.00,meteohub,2013-02-26 19:39:00,
2013-02-26 12:45:00,52.3,4.5,29.99,NNW,348,17.0,24.0,14,0.00,,,0.00,meteohub,2013-02-26 19:45:00,
2013-02-26 12:50:00,52.5,6.3,29.99,NNW,338,17.0,24.0,15,0.00,,,0.00,meteohub,2013-02-26 19:50:00,
2013-02-26 12:55:00,52.5,6.3,29.99,NNE,15,13.0,23.0,15,0.00,,,0.00,meteohub,2013-02-26 19:55:00,
2013-02-26 13:00:00,52.5,6.3,29.98,North,355,11.0,23.0,15,0.00,,,0.00,meteohub,2013-02-26 20:00:00,
2013-02-26 13:06:00,53.4,7.0,29.98,North,0,7.0,23.0,15,0.00,,,0.00,meteohub,2013-02-26 20:06:00,
2013-02-26 13:11:00,53.4,5.4,29.98,North,5,14.0,22.0,14,0.00,,,0.00,meteohub,2013-02-26 20:11:00,
2013-02-26 13:17:00,53.4,3.7,29.98,NNW,344,11.0,22.0,13,0.00,,,0.00,meteohub,2013-02-26 20:17:00,
2013-02-26 13:22:00,53.2,3.6,29.98,NNW,340,12.0,23.0,13,0.00,,,0.00,meteohub,2013-02-26 20:22:00,
2013-02-26 13:27:00,53.4,3.7,29.97,NNW,336,14.0,23.0,13,0.00,,,0.00,meteohub,2013-02-26 20:27:00,
2013-02-26 13:32:00,53.1,3.6,29.97,NW,316,11.0,23.0,13,0.00,,,0.00,meteohub,2013-02-26 20:32:00,
2013-02-26 13:37:00,53.2,3.6,29.97,North,5,6.0,23.0,13,0.00,,,0.00,meteohub,2013-02-26 20:37:00,
2013-02-26 13:42:00,53.4,3.7,29.97,North,0,7.0,23.0,13,0.00,,,0.00,meteohub,2013-02-26 20:42:00,
2013-02-26 13:47:00,53.4,3.7,29.97,NNW,334,8.0,23.0,13,0.00,,,0.00,meteohub,2013-02-26 20:47:00,
2013-02-26 13:52:00,53.4,3.7,29.96,North,355,10.0,22.0,13,0.00,,,0.00,meteohub,2013-02-26 20:52:00,
2013-02-26 13:57:00,53.4,3.7,29.96,NNE,22,10.0,22.0,13,0.00,,,0.00,meteohub,2013-02-26 20:57:00,
2013-02-26 14:02:00,53.2,1.9,29.96,NNW,333,8.0,22.0,12,0.00,,,0.00,meteohub,2013-02-26 21:02:00,
2013-02-26 14:07:00,53.2,3.6,29.96,NNW,346,11.0,22.0,13,0.00,,,0.00,meteohub,2013-02-26 21:07:00,
2013-02-26 14:12:00,53.4,3.7,29.96,North,11,10.0,22.0,13,0.00,,,0.00,meteohub,2013-02-26 21:12:00,
2013-02-26 14:17:00,54.0,2.5,29.96,NW,322,7.0,22.0,12,0.00,,,0.00,meteohub,2013-02-26 21:17:00,
2013-02-26 14:22:00,53.8,4.1,29.96,NNW,342,11.0,20.0,13,0.00,,,0.00,meteohub,2013-02-26 21:22:00,
2013-02-26 14:27:00,54.0,4.3,29.96,NW,315,4.0,20.0,13,0.00,,,0.00,meteohub,2013-02-26 21:27:00,
2013-02-26 14:32:00,54.1,2.7,29.95,NW,307,17.0,20.0,12,0.00,,,0.00,meteohub,2013-02-26 21:32:00,
2013-02-26 14:37:00,54.0,0.7,29.95,North,355,6.0,20.0,11,0.00,,,0.00,meteohub,2013-02-26 21:37:00,
2013-02-26 14:42:00,54.3,2.8,29.94,NNW,340,12.0,20.0,12,0.00,,,0.00,meteohub,2013-02-26 21:42:00,
2013-02-26 14:47:00,54.3,2.8,29.95,NW,325,11.0,20.0,12,0.00,,,0.00,meteohub,2013-02-26 21:47:00,
2013-02-26 14:52:00,54.3,2.8,29.94,NNW,342,10.0,20.0,12,0.00,,,0.00,meteohub,2013-02-26 21:52:00,
2013-02-26 14:57:00,54.1,0.7,29.94,NNW,336,13.0,20.0,11,0.00,,,0.00,meteohub,2013-02-26 21:57:00,
2013-02-26 15:02:00,54.0,2.5,29.94,NNW,342,11.0,20.0,12,0.00,,,0.00,meteohub,2013-02-26 22:02:00,
2013-02-26 15:07:00,53.4,2.1,29.94,NNW,336,14.0,20.0,12,0.00,,,0.00,meteohub,2013-02-26 22:07:00,
2013-02-26 15:12:00,53.1,1.8,29.94,NW,318,9.0,23.0,12,0.00,,,0.00,meteohub,2013-02-26 22:12:00,
2013-02-26 15:17:00,52.9,1.6,29.94,NW,305,6.0,23.0,12,0.00,,,0.00,meteohub,2013-02-26 22:17:00,
2013-02-26 15:22:00,53.2,3.6,29.94,North,350,6.0,23.0,13,0.00,,,0.00,meteohub,2013-02-26 22:22:00,
2013-02-26 15:27:00,53.2,1.9,29.94,North,350,11.0,23.0,12,0.00,,,0.00,meteohub,2013-02-26 22:27:00,
2013-02-26 15:32:00,52.9,-0.2,29.95,NNW,330,17.0,17.0,11,0.00,,,0.00,meteohub,2013-02-26 22:32:00,
2013-02-26 15:37:00,52.9,1.6,29.94,NW,319,14.0,15.0,12,0.00,,,0.00,meteohub,2013-02-26 22:37:00,
2013-02-26 15:42:00,52.7,1.4,29.94,WNW,298,8.0,18.0,12,0.00,,,0.00,meteohub,2013-02-26 22:42:00,
2013-02-26 15:47:00,52.9,-0.2,29.94,NNW,346,6.0,18.0,11,0.00,,,0.00,meteohub,2013-02-26 22:47:00,
2013-02-26 15:52:00,52.7,1.4,29.94,NW,324,15.0,21.0,12,0.00,,,0.00,meteohub,2013-02-26 22:52:00,
2013-02-26 15:57:00,52.3,1.2,29.94,WNW,300,15.0,21.0,12,0.00,,,0.00,meteohub,2013-02-26 22:57:00,
2013-02-26 16:02:00,52.3,1.2,29.94,NW,308,4.0,20.0,12,0.00,,,0.00,meteohub,2013-02-26 23:02:00,
2013-02-26 16:07:00,52.5,1.4,29.94,NNW,341,13.0,20.0,12,0.00,,,0.00,meteohub,2013-02-26 23:07:00,
2013-02-26 16:12:00,52.0,0.9,29.94,North,11,9.0,21.0,12,0.00,,,0.00,meteohub,2013-02-26 23:12:00,
2013-02-26 16:17:00,52.0,2.7,29.94,NW,311,11.0,21.0,13,0.00,,,0.00,meteohub,2013-02-26 23:17:00,
2013-02-26 16:22:00,51.8,0.7,29.94,NNW,330,12.0,21.0,12,0.00,,,0.00,meteohub,2013-02-26 23:22:00,
2013-02-26 16:27:00,51.8,2.5,29.94,NW,323,11.0,21.0,13,0.00,,,0.00,meteohub,2013-02-26 23:27:00,
2013-02-26 16:32:00,52.2,2.8,29.94,NNW,327,4.0,20.0,13,0.00,,,0.00,meteohub,2013-02-26 23:32:00,
2013-02-26 16:37:00,52.2,2.8,29.94,NNE,15,9.0,20.0,13,0.00,,,0.00,meteohub,2013-02-26 23:37:00,
2013-02-26 16:42:00,51.8,2.5,29.94,NW,323,9.0,21.0,13,0.00,,,0.00,meteohub,2013-02-26 23:42:00,
2013-02-26 16:47:00,51.6,3.9,29.94,NW,314,3.0,21.0,14,0.00,,,0.00,meteohub,2013-02-26 23:47:00,
2013-02-26 16:52:00,51.4,3.7,29.94,NW,310,8.0,21.0,14,0.00,,,0.00,meteohub,2013-02-26 23:52:00,
2013-02-26 16:58:00,50.7,3.2,29.94,NNW,327,9.0,21.0,14,0.00,,,0.00,meteohub,2013-02-26 23:58:00,
2013-02-26 17:03:00,50.7,4.6,29.94,NW,313,7.0,16.0,15,0.00,,,0.00,meteohub,2013-02-27 00:03:00,
2013-02-26 17:08:00,50.5,3.0,29.94,NW,322,16.0,16.0,14,0.00,,,0.00,meteohub,2013-02-27 00:08:00,
2013-02-26 17:14:00,50.2,4.3,29.94,WNW,298,13.0,16.0,15,0.00,,,0.00,meteohub,2013-02-27 00:14:00,
2013-02-26 17:19:00,49.3,5.0,29.94,WNW,292,6.0,16.0,16,0.00,,,0.00,meteohub,2013-02-27 00:19:00,
2013-02-26 17:24:00,48.2,5.4,29.94,WNW,284,4.0,19.0,17,0.00,,,0.00,meteohub,2013-02-27 00:24:00,
2013-02-26 17:30:00,47.5,4.8,29.94,NNW,329,12.0,15.0,17,0.00,,,0.00,meteohub,2013-02-27 00:30:00,
2013-02-26 17:35:00,46.9,5.5,29.95,North,355,7.0,15.0,18,0.00,,,0.00,meteohub,2013-02-27 00:35:00,
2013-02-26 17:40:00,46.8,5.5,29.95,NNW,327,12.0,17.0,18,0.00,,,0.00,meteohub,2013-02-27 00:40:00,
2013-02-26 17:45:00,46.6,5.4,29.95,WNW,291,6.0,17.0,18,0.00,,,0.00,meteohub,2013-02-27 00:45:00,
2013-02-26 17:51:00,46.2,6.3,29.96,WNW,300,10.0,17.0,19,0.00,,,0.00,meteohub,2013-02-27 00:51:00,
2013-02-26 17:56:00,46.0,6.1,29.95,West,264,11.0,17.0,19,0.00,,,0.00,meteohub,2013-02-27 00:56:00,
2013-02-26 18:01:00,46.0,6.1,29.95,NW,309,14.0,16.0,19,0.00,,,0.00,meteohub,2013-02-27 01:01:00,
2013-02-26 18:07:00,45.9,5.9,29.96,NW,309,10.0,16.0,19,0.00,,,0.00,meteohub,2013-02-27 01:07:00,
2013-02-26 18:12:00,45.7,5.7,29.96,NW,320,10.0,17.0,19,0.00,,,0.00,meteohub,2013-02-27 01:12:00,
2013-02-26 18:17:00,45.7,6.8,29.96,WNW,296,8.0,17.0,20,0.00,,,0.00,meteohub,2013-02-27 01:17:00,
2013-02-26 18:22:00,45.3,6.6,29.96,NW,306,8.0,17.0,20,0.00,,,0.00,meteohub,2013-02-27 01:22:00,
2013-02-26 18:27:00,45.3,6.6,29.96,NW,304,11.0,17.0,20,0.00,,,0.00,meteohub,2013-02-27 01:27:00,
2013-02-26 18:32:00,45.1,6.4,29.96,NW,315,7.0,18.0,20,0.00,,,0.00,meteohub,2013-02-27 01:32:00,
2013-02-26 18:37:00,45.0,6.3,29.97,NNW,342,11.0,18.0,20,0.00,,,0.00,meteohub,2013-02-27 01:37:00,
2013-02-26 18:42:00,45.1,6.4,29.97,NW,320,7.0,18.0,20,0.00,,,0.00,meteohub,2013-02-27 01:42:00,
2013-02-26 18:47:00,45.1,6.4,29.97,NW,316,12.0,16.0,20,0.00,,,0.00,meteohub,2013-02-27 01:47:00,
2013-02-26 18:52:00,45.0,6.3,29.98,WNW,297,10.0,16.0,20,0.00,,,0.00,meteohub,2013-02-27 01:52:00,
2013-02-26 18:57:00,44.8,6.1,29.98,NW,310,7.0,15.0,20,0.00,,,0.00,meteohub,2013-02-27 01:57:00,
2013-02-26 19:02:00,44.4,5.9,29.99,WNW,302,4.0,15.0,20,0.00,,,0.00,meteohub,2013-02-27 02:02:00,
2013-02-26 19:07:00,44.4,5.9,29.99,NW,312,10.0,15.0,20,0.00,,,0.00,meteohub,2013-02-27 02:07:00,
2013-02-26 19:12:00,44.4,5.9,29.99,NW,309,12.0,15.0,20,0.00,,,0.00,meteohub,2013-02-27 02:12:00,
2013-02-26 19:17:00,44.6,5.9,29.99,NW,318,7.0,15.0,20,0.00,,,0.00,meteohub,2013-02-27 02:17:00,
2013-02-26 19:22:00,44.4,7.0,30.00,NNW,344,8.0,15.0,21,0.00,,,0.00,meteohub,2013-02-27 02:22:00,
2013-02-26 19:27:00,44.2,5.7,30.00,NW,319,14.0,15.0,20,0.00,,,0.00,meteohub,2013-02-27 02:27:00,
2013-02-26 19:32:00,44.2,5.7,30.00,WNW,302,8.0,15.0,20,0.00,,,0.00,meteohub,2013-02-27 02:32:00,
2013-02-26 19:38:00,44.1,5.5,30.01,WNW,295,10.0,15.0,20,0.00,,,0.00,meteohub,2013-02-27 02:38:00,
2013-02-26 19:43:00,43.9,5.4,30.02,NW,322,8.0,16.0,20,0.00,,,0.00,meteohub,2013-02-27 02:43:00,
2013-02-26 19:48:00,43.9,4.3,30.02,NW,311,5.0,16.0,19,0.00,,,0.00,meteohub,2013-02-27 02:48:00,
2013-02-26 19:53:00,43.7,4.1,30.02,NW,321,10.0,14.0,19,0.00,,,0.00,meteohub,2013-02-27 02:53:00,
2013-02-26 19:58:00,43.3,5.0,30.03,NNW,338,5.0,14.0,20,0.00,,,0.00,meteohub,2013-02-27 02:58:00,
2013-02-26 20:04:00,43.0,4.6,30.03,NW,309,7.0,13.0,20,0.00,,,0.00,meteohub,2013-02-27 03:04:00,
2013-02-26 20:09:00,42.6,4.3,30.04,NW,320,6.0,13.0,20,0.00,,,0.00,meteohub,2013-02-27 03:09:00,
2013-02-26 20:14:00,42.4,4.1,30.04,NW,322,8.0,12.0,20,0.00,,,0.00,meteohub,2013-02-27 03:14:00,
2013-02-26 20:20:00,42.3,4.1,30.04,WNW,296,6.0,12.0,20,0.00,,,0.00,meteohub,2013-02-27 03:20:00,
2013-02-26 20:25:00,41.7,3.6,30.04,NNE,25,1.0,12.0,20,0.00,,,0.00,meteohub,2013-02-27 03:25:00,
2013-02-26 20:30:00,41.2,4.1,30.05,NNE,14,2.0,9.0,21,0.00,,,0.00,meteohub,2013-02-27 03:30:00,
2013-02-26 20:36:00,40.6,4.8,30.05,NNE,13,2.0,9.0,22,0.00,,,0.00,meteohub,2013-02-27 03:36:00,
2013-02-26 20:41:00,39.9,4.1,30.05,NW,326,5.0,7.0,22,0.00,,,0.00,meteohub,2013-02-27 03:41:00,
2013-02-26 20:47:00,39.6,4.8,30.05,NNW,344,3.0,7.0,23,0.00,,,0.00,meteohub,2013-02-27 03:47:00,
2013-02-26 20:52:00,39.6,4.8,30.05,NW,324,4.0,7.0,23,0.00,,,0.00,meteohub,2013-02-27 03:52:00,
2013-02-26 20:57:00,38.5,4.8,30.05,NW,311,4.0,7.0,24,0.00,,,0.00,meteohub,2013-02-27 03:57:00,
2013-02-26 21:02:00,38.1,4.5,30.06,NW,308,4.0,7.0,24,0.00,,,0.00,meteohub,2013-02-27 04:02:00,
2013-02-26 21:07:00,37.8,4.3,30.06,NW,315,4.0,7.0,24,0.00,,,0.00,meteohub,2013-02-27 04:07:00,
2013-02-26 21:12:00,37.9,3.4,30.06,NW,322,8.0,8.0,23,0.00,,,0.00,meteohub,2013-02-27 04:12:00,
2013-02-26 21:17:00,37.9,3.4,30.07,NNW,338,9.0,9.0,23,0.00,,,0.00,meteohub,2013-02-27 04:17:00,
2013-02-26 21:22:00,38.1,3.6,30.07,NNW,327,6.0,10.0,23,0.00,,,0.00,meteohub,2013-02-27 04:22:00,
2013-02-26 21:27:00,38.1,2.7,30.07,NW,307,5.0,10.0,22,0.00,,,0.00,meteohub,2013-02-27 04:27:00,
2013-02-26 21:32:00,38.3,2.8,30.08,WNW,303,4.0,11.0,22,0.00,,,0.00,meteohub,2013-02-27 04:32:00,
2013-02-26 21:37:00,38.5,1.9,30.08,NW,315,5.0,11.0,21,0.00,,,0.00,meteohub,2013-02-27 04:37:00,
2013-02-26 21:43:00,38.3,2.8,30.09,NW,306,5.0,7.0,22,0.00,,,0.00,meteohub,2013-02-27 04:43:00,
2013-02-26 21:48:00,37.9,2.5,30.09,WNW,302,5.0,7.0,22,0.00,,,0.00,meteohub,2013-02-27 04:48:00,
2013-02-26 21:53:00,37.8,2.3,30.09,NNW,338,6.0,7.0,22,0.00,,,0.00,meteohub,2013-02-27 04:53:00,
2013-02-26 21:59:00,37.2,2.8,30.09,NW,319,5.0,7.0,23,0.00,,,0.00,meteohub,2013-02-27 04:59:00,
2013-02-26 22:00:00,37.2,1.9,30.09,NNW,331,3.0,9.0,22,0.00,,,0.00,meteohub,2013-02-27 05:00:00,
2013-02-26 22:01:00,37.2,1.9,30.09,NW,318,5.0,9.0,22,0.00,,,0.00,meteohub,2013-02-27 05:01:00,
2013-02-26 22:06:00,37.0,2.7,30.09,WNW,294,5.0,9.0,23,0.00,,,0.00,meteohub,2013-02-27 05:06:00,
2013-02-26 22:11:00,37.2,1.9,30.09,NNE,14,6.0,10.0,22,0.00,,,0.00,meteohub,2013-02-27 05:11:00,
2013-02-26 22:17:00,37.6,1.2,30.10,North,0,6.0,10.0,21,0.00,,,0.00,meteohub,2013-02-27 05:17:00,
2013-02-26 22:22:00,37.9,1.4,30.09,NW,321,5.0,11.0,21,0.00,,,0.00,meteohub,2013-02-27 05:22:00,
2013-02-26 22:27:00,37.9,1.4,30.09,North,355,9.0,11.0,21,0.00,,,0.00,meteohub,2013-02-27 05:27:00,
2013-02-26 22:32:00,37.9,1.4,30.10,NNW,332,3.0,11.0,21,0.00,,,0.00,meteohub,2013-02-27 05:32:00,
2013-02-26 22:37:00,37.9,0.5,30.10,NNW,340,6.0,11.0,20,0.00,,,0.00,meteohub,2013-02-27 05:37:00,
2013-02-26 22:42:00,37.8,0.3,30.10,NNW,344,4.0,11.0,20,0.00,,,0.00,meteohub,2013-02-27 05:42:00,
2013-02-26 22:47:00,37.8,0.3,30.11,NNW,328,2.0,11.0,20,0.00,,,0.00,meteohub,2013-02-27 05:47:00,
2013-02-26 22:52:00,37.4,1.0,30.11,NW,304,3.0,7.0,21,0.00,,,0.00,meteohub,2013-02-27 05:52:00,
2013-02-26 22:57:00,37.0,0.7,30.11,NNW,328,6.0,7.0,21,0.00,,,0.00,meteohub,2013-02-27 05:57:00,
2013-02-26 23:02:00,36.7,0.3,30.11,NW,306,7.0,8.0,21,0.00,,,0.00,meteohub,2013-02-27 06:02:00,
2013-02-26 23:07:00,36.3,0.1,30.11,NW,319,5.0,8.0,21,0.00,,,0.00,meteohub,2013-02-27 06:07:00,
2013-02-26 23:12:00,36.3,0.1,30.11,NNW,331,4.0,9.0,21,0.00,,,0.00,meteohub,2013-02-27 06:12:00,
2013-02-26 23:17:00,36.7,0.3,30.11,WNW,298,7.0,9.0,21,0.00,,,0.00,meteohub,2013-02-27 06:17:00,
2013-02-26 23:22:00,36.3,0.1,30.12,NW,315,6.0,9.0,21,0.00,,,0.00,meteohub,2013-02-27 06:22:00,
2013-02-26 23:27:00,36.3,1.0,30.12,NW,309,4.0,9.0,22,0.00,,,0.00,meteohub,2013-02-27 06:27:00,
2013-02-26 23:32:00,36.0,0.9,30.12,WNW,294,6.0,8.0,22,0.00,,,0.00,meteohub,2013-02-27 06:32:00,
2013-02-26 23:37:00,35.4,1.2,30.12,West,279,4.0,8.0,23,0.00,,,0.00,meteohub,2013-02-27 06:37:00,
2013-02-26 23:42:00,34.9,0.9,30.12,WNW,289,7.0,7.0,23,0.00,,,0.00,meteohub,2013-02-27 06:42:00,
2013-02-26 23:47:00,34.3,1.2,30.12,WNW,286,5.0,7.0,24,0.00,,,0.00,meteohub,2013-02-27 06:47:00,
2013-02-26 23:52:00,34.2,1.0,30.12,WNW,289,5.0,8.0,24,0.00,,,0.00,meteohub,2013-02-27 06:52:00,
2013-02-26 23:57:00,34.0,1.0,30.12,WNW,287,6.0,8.0,24,0.00,,,0.00,meteohub,2013-02-27 06:57:00,